Change the Weather History Date:

Thursday, April 3, 2014

  Actual Average (KVPZ) Record (KVPZ)
Temperature  
Mean Temperature 40 °F 45 °F  
Max Temperature 46 °F 55 °F 80 °F (2012)
Min Temperature 35 °F 34 °F 20 °F (2013)
Degree Days  
Heating Degree Days 24 21  
Month to date heating degree days 63  
Since 1 July heating degree days 5640  
Cooling Degree Days 0 0  
Month to date cooling degree days 0  
Year to date cooling degree days 0  
Moisture  
Dew Point 35 °F    
Average Humidity 85    
Maximum Humidity 100    
Minimum Humidity 46    
Precipitation  
Precipitation 0.00 in 0.10 in 1.50 in (2014)
Month to date precipitation 0.28  
Year to date precipitation 5.93  
Sea Level Pressure  
Sea Level Pressure 29.86 in    
Wind  
Wind Speed 6 mph (East)    
Max Wind Speed 16 mph    
Max Gust Speed 25 mph    
Visibility 7 miles    
Events Rain    
T = Trace of Precipitation, MM = Missing Value Source: NWS Daily Summary

Daily Weather History Graph

Daily Weather History Graph

Search for Another Location

Airport or City:

Trip Planner

Search our weather history database for the weather conditions in past years. The results will help you decide how hot, cold, wet, or windy it might be!

Date:

Astronomy

Apr. 03, 2014 Rise Set
Actual Time 6:26 AM CDT 7:14 PM CDT
Civil Twilight 5:58 AM CDT 7:43 PM CDT
Nautical Twilight 5:25 AM CDT 8:16 PM CDT
Astronomical Twilight 4:50 AM CDT 8:51 PM CDT
Moon 8:52 AM CDT (4/3) 11:36 PM CDT (4/3)
Length of Visible Light 13h 44m
Length of Day
12h 48m
Waxing Crescent, 17% of the Moon is Illuminated
Apr 3
Waxing Crescent
Apr 7
First Quarter
Apr 15
Full
Apr 22
Last Quarter
Apr 29
New

Hourly Weather History & Observations

Time (CDT) Temp. Windchill Dew Point Humidity Pressure Visibility Wind Dir Wind Speed Gust Speed Precip Events Conditions
12:15 AM 37.4 °F - 30.2 °F 75% 30.05 in 10.0 mi Calm Calm - N/A   Overcast
12:35 AM 37.4 °F - 32.0 °F 81% 30.03 in 10.0 mi Calm Calm - N/A   Overcast
12:55 AM 39.2 °F - 32.0 °F 75% 30.04 in 10.0 mi Calm Calm - N/A   Overcast
1:15 AM 39.2 °F - 32.0 °F 75% 30.03 in 10.0 mi Calm Calm - N/A   Overcast
1:35 AM 44.6 °F 43.1 °F 30.2 °F 57% 30.02 in 10.0 mi East 3.5 mph - N/A   Overcast
1:55 AM 46.4 °F 44.3 °F 28.4 °F 50% 30.01 in 10.0 mi East 4.6 mph - N/A   Overcast
2:15 AM 46.4 °F 45.2 °F 26.6 °F 46% 30.02 in 10.0 mi East 3.5 mph - N/A   Overcast
2:35 AM 46.4 °F 43.5 °F 28.4 °F 50% 30.02 in 10.0 mi East 5.8 mph - N/A   Overcast
2:55 AM 44.6 °F 38.4 °F 32.0 °F 61% 29.96 in 10.0 mi ESE 12.7 mph 16.1 mph N/A Rain Rain
3:15 AM 42.8 °F 36.6 °F 33.8 °F 70% 29.98 in 7.0 mi SE 11.5 mph 23.0 mph N/A Rain Light Rain
3:35 AM 42.8 °F 38.6 °F 35.6 °F 76% 29.98 in 5.0 mi East 6.9 mph - N/A Rain Light Rain
3:55 AM 41.0 °F 36.4 °F 35.6 °F 81% 29.99 in 10.0 mi East 6.9 mph - N/A Rain Light Rain
4:15 AM 41.0 °F 36.4 °F 35.6 °F 81% 29.96 in 10.0 mi East 6.9 mph - N/A   Light Drizzle
4:35 AM 41.0 °F 37.1 °F 35.6 °F 81% 29.95 in 10.0 mi East 5.8 mph 16.1 mph N/A   Overcast
4:55 AM 41.0 °F 35.2 °F 35.6 °F 81% 29.95 in 10.0 mi East 9.2 mph - N/A   Overcast
5:15 AM 41.0 °F 35.8 °F 33.8 °F 76% 29.95 in 10.0 mi ESE 8.1 mph 25.3 mph N/A   Overcast
5:35 AM 41.0 °F 34.7 °F 33.8 °F 76% 29.94 in 7.0 mi East 10.4 mph 23.0 mph N/A Rain Light Rain
5:55 AM 39.2 °F 33.0 °F 33.8 °F 81% 29.93 in 5.0 mi East 9.2 mph 17.3 mph N/A Rain Rain
6:15 AM 39.2 °F 32.0 °F 35.6 °F 87% 29.94 in 5.0 mi East 11.5 mph 17.3 mph N/A Rain Rain
6:35 AM 37.4 °F 30.8 °F 35.6 °F 93% 29.96 in 4.0 mi East 9.2 mph - N/A Rain Rain
7:15 AM 37.4 °F 28.9 °F 35.6 °F 93% 29.92 in 4.0 mi East 13.8 mph 18.4 mph N/A Rain Rain
7:35 AM 37.4 °F 30.8 °F 35.6 °F 93% 29.93 in 4.0 mi ESE 9.2 mph 17.3 mph N/A Rain Rain
7:55 AM 37.4 °F 30.8 °F 33.8 °F 87% 29.92 in 5.0 mi East 9.2 mph 19.6 mph N/A Rain Rain
8:15 AM 35.6 °F 28.0 °F 33.8 °F 93% 29.92 in 5.0 mi ESE 10.4 mph 18.4 mph N/A Rain Rain
8:35 AM 35.6 °F 27.1 °F 33.8 °F 93% 29.91 in 4.0 mi ESE 12.7 mph 20.7 mph N/A Rain Rain
8:55 AM 35.6 °F 26.2 °F 32.0 °F 87% 29.90 in 3.0 mi East 15.0 mph 23.0 mph N/A Rain Rain
9:15 AM 35.6 °F 26.6 °F 32.0 °F 87% 29.89 in 2.0 mi East 13.8 mph 25.3 mph N/A Rain Rain
9:35 AM 35.6 °F 29.2 °F 32.0 °F 87% 29.89 in 2.5 mi East 8.1 mph 19.6 mph N/A Rain Heavy Rain
9:55 AM 35.6 °F 30.7 °F 32.0 °F 87% 29.89 in 3.0 mi East 5.8 mph 20.7 mph N/A Rain Rain
10:15 AM 35.6 °F 27.1 °F 33.8 °F 93% 29.88 in 5.0 mi East 12.7 mph 17.3 mph N/A Rain Light Rain
10:35 AM 35.6 °F 28.0 °F 33.8 °F 93% 29.87 in 5.0 mi East 10.4 mph 19.6 mph N/A Rain Light Rain
10:55 AM 35.6 °F 27.1 °F 33.8 °F 93% 29.85 in 7.0 mi East 12.7 mph 20.7 mph N/A Rain Light Rain
11:15 AM 35.6 °F 28.0 °F 33.8 °F 93% 29.85 in 10.0 mi East 10.4 mph 25.3 mph N/A Rain Light Rain
11:35 AM 35.6 °F 29.2 °F 33.8 °F 93% 29.85 in 10.0 mi East 8.1 mph 21.9 mph N/A   Overcast
11:55 AM 35.6 °F 29.2 °F 33.8 °F 93% 29.84 in 10.0 mi East 8.1 mph 18.4 mph N/A Rain Light Rain
12:15 PM 37.4 °F 30.3 °F 35.6 °F 93% 29.81 in 7.0 mi East 10.4 mph 17.3 mph N/A Rain Light Rain
12:35 PM 39.2 °F 32.0 °F 35.6 °F 87% 29.80 in 10.0 mi East 11.5 mph 23.0 mph N/A   Overcast
12:55 PM 41.0 °F 32.8 °F 37.4 °F 87% 29.78 in 5.0 mi East 16.1 mph 23.0 mph N/A   Overcast
1:15 PM 41.0 °F 34.3 °F 35.6 °F 81% 29.79 in 7.0 mi East 11.5 mph 20.7 mph N/A   Overcast
1:35 PM 41.0 °F 33.5 °F 35.6 °F 81% 29.78 in 4.0 mi ESE 13.8 mph 25.3 mph N/A   Overcast
1:55 PM 41.0 °F 34.3 °F 37.4 °F 87% 29.78 in 7.0 mi ESE 11.5 mph 21.9 mph N/A   Overcast
2:15 PM 41.0 °F 34.3 °F 37.4 °F 87% 29.76 in 10.0 mi East 11.5 mph 19.6 mph N/A   Overcast
2:35 PM 41.0 °F 33.5 °F 37.4 °F 87% 29.74 in 10.0 mi ESE 13.8 mph 20.7 mph N/A   Overcast
2:55 PM 41.0 °F 35.2 °F 37.4 °F 87% 29.72 in 10.0 mi ESE 9.2 mph 21.9 mph N/A   Overcast
3:15 PM 41.0 °F 34.3 °F 37.4 °F 87% 29.72 in 10.0 mi ESE 11.5 mph 18.4 mph N/A   Overcast
3:35 PM 42.8 °F 38.0 °F 37.4 °F 81% 29.77 in 10.0 mi ESE 8.1 mph - N/A   Overcast
3:55 PM 42.8 °F 41.1 °F 37.4 °F 81% 29.79 in 10.0 mi NE 3.5 mph - N/A   Overcast
4:15 PM 41.0 °F 36.4 °F 37.4 °F 87% 29.79 in 3.0 mi North 6.9 mph - N/A   Drizzle
4:35 PM 39.2 °F 35.0 °F 37.4 °F 93% 29.79 in 3.0 mi NNE 5.8 mph - N/A   Drizzle
4:55 PM 39.2 °F - 37.4 °F 93% 29.79 in 3.0 mi Calm Calm - N/A   Light Drizzle
5:15 PM 39.2 °F - 37.4 °F 93% 29.78 in 2.5 mi Calm Calm - N/A   Overcast
5:55 PM 41.0 °F 38.0 °F 39.2 °F 93% 29.79 in 4.0 mi ENE 4.6 mph - N/A   Overcast
6:15 PM 41.0 °F 38.0 °F 39.2 °F 93% 29.79 in 4.0 mi ENE 4.6 mph - N/A   Overcast
6:35 PM 41.0 °F 39.0 °F 39.2 °F 93% 29.80 in 2.5 mi East 3.5 mph - N/A   Overcast
6:55 PM 41.0 °F 39.0 °F 39.2 °F 93% 29.80 in 2.0 mi East 3.5 mph - N/A   Overcast
7:15 PM 41.0 °F 37.1 °F 39.2 °F 93% 29.82 in 3.0 mi ESE 5.8 mph - N/A   Overcast
7:35 PM 41.0 °F 37.1 °F 37.4 °F 87% 29.80 in 4.0 mi ESE 5.8 mph - N/A   Overcast
7:55 PM 41.0 °F 38.0 °F 37.4 °F 87% 29.80 in 5.0 mi East 4.6 mph - N/A   Overcast
8:15 PM 39.2 °F 35.9 °F 37.4 °F 93% 29.80 in 5.0 mi ESE 4.6 mph - N/A   Overcast
8:35 PM 39.2 °F 35.9 °F 37.4 °F 93% 29.79 in 4.0 mi East 4.6 mph - N/A   Overcast
8:55 PM 39.2 °F 34.2 °F 37.4 °F 93% 29.79 in 7.0 mi East 6.9 mph - N/A   Overcast
9:15 PM 39.2 °F 35.0 °F 37.4 °F 93% 29.77 in 10.0 mi East 5.8 mph - N/A   Overcast
9:35 PM 37.4 °F 31.4 °F 37.4 °F 100% 29.74 in 10.0 mi East 8.1 mph - N/A   Overcast
11:15 PM 37.4 °F 32.8 °F 35.6 °F 93% 29.69 in 10.0 mi East 5.8 mph 19.6 mph N/A   Overcast
11:35 PM 37.4 °F 31.4 °F 35.6 °F 93% 29.70 in 7.0 mi ESE 8.1 mph - N/A   Overcast
11:55 PM 37.4 °F 34.9 °F 35.6 °F 93% 29.72 in 7.0 mi SE 3.5 mph 16.1 mph N/A   Overcast